Weather History for KRWF - October, 2013

Change the Weather History Date:

Wednesday, October 2, 2013

  Actual Average Record
Temperature  
Mean Temperature 61 °F -  
Max Temperature 80 °F 68 °F 93 °F (1953)
Min Temperature 43 °F 42 °F 18 °F (1974)
Degree Days  
Heating Degree Days 4    
Growing Degree Days 11 (Base 50)    
Moisture  
Dew Point 47 °F    
Average Humidity 67    
Maximum Humidity 97    
Minimum Humidity 22    
Precipitation  
Precipitation 0.46 in - - ()
Sea Level Pressure  
Sea Level Pressure 29.90 in    
Wind  
Wind Speed 8 mph (SE)    
Max Wind Speed 26 mph    
Max Gust Speed 37 mph    
Visibility 9 miles    
Events Rain , Thunderstorm    
Averages and records for this station are not official NWS values.
T = Trace of Precipitation, MM = Missing Value Source: NWS Daily Summary

Daily Weather History Graph

Daily Weather History Graph

Search for Another Location

Airport or City:

Trip Planner

Search our weather history database for the weather conditions in past years. The results will help you decide how hot, cold, wet, or windy it might be!

Date:

Astronomy

Oct. 02, 2013 Rise Set
Actual Time 7:19 AM CDT 6:58 PM CDT
Civil Twilight 6:50 AM CDT 7:27 PM CDT
Nautical Twilight 6:16 AM CDT 8:01 PM CDT
Astronomical Twilight 5:42 AM CDT 8:35 PM CDT
Moon 4:49 AM CDT (10/2) 5:38 PM CDT (10/2)
Length of Visible Light 12h 36m
Length of Day
11h 38m
Waning Crescent, 6% of the Moon is Illuminated
Oct 2
Waning Crescent
Oct 4
New
Oct 11
First Quarter
Oct 18
Full
Oct 26
Last Quarter

Hourly Weather History & Observations

Time (CDT) Temp. Windchill Dew Point Humidity Pressure Visibility Wind Dir Wind Speed Gust Speed Precip Events Conditions
12:53 AM 50.0 °F - 37.9 °F 63% 30.01 in 10.0 mi Calm Calm - N/A   Clear
1:53 AM 48.9 °F - 39.0 °F 69% 30.01 in 10.0 mi Calm Calm - N/A   Clear
2:53 AM 45.0 °F - 39.0 °F 80% 30.01 in 10.0 mi Calm Calm - N/A   Clear
3:53 AM 46.0 °F 43.9 °F 39.0 °F 76% 30.00 in 10.0 mi NE 4.6 mph - N/A   Clear
4:53 AM 44.1 °F 41.5 °F 37.9 °F 79% 30.01 in 10.0 mi SSE 4.6 mph - N/A   Clear
5:53 AM 44.1 °F 42.5 °F 37.0 °F 76% 30.01 in 10.0 mi SSE 3.5 mph - N/A   Clear
6:53 AM 43.0 °F 39.5 °F 37.0 °F 80% 30.02 in 10.0 mi South 5.8 mph - N/A   Clear
7:53 AM 44.1 °F 40.1 °F 37.9 °F 79% 30.03 in 10.0 mi SSE 6.9 mph - N/A   Clear
8:53 AM 50.0 °F - 39.9 °F 68% 30.01 in 10.0 mi SE 6.9 mph - N/A   Clear
9:53 AM 62.1 °F - 37.0 °F 39% 30.01 in 10.0 mi SE 10.4 mph 18.4 mph N/A   Clear
10:53 AM 69.1 °F - 36.0 °F 30% 29.99 in 10.0 mi SSE 16.1 mph 26.5 mph N/A   Clear
11:53 AM 73.0 °F - 32.0 °F 22% 29.96 in 10.0 mi SE 24.2 mph 31.1 mph N/A   Partly Cloudy
12:53 PM 73.0 °F - 33.1 °F 23% 29.94 in 10.0 mi SSE 16.1 mph 26.5 mph N/A   Overcast
1:53 PM 77.0 °F - 35.1 °F 22% 29.89 in 10.0 mi SE 21.9 mph 28.8 mph N/A   Scattered Clouds
2:53 PM 78.1 °F - 39.0 °F 25% 29.83 in 10.0 mi SSE 23.0 mph 34.5 mph N/A   Partly Cloudy
3:53 PM 79.0 °F - 44.1 °F 29% 29.81 in 10.0 mi SSE 24.2 mph 34.5 mph N/A   Scattered Clouds
4:53 PM 79.0 °F - 48.0 °F 34% 29.78 in 10.0 mi SSE 24.2 mph 31.1 mph N/A   Scattered Clouds
5:53 PM 78.1 °F - 54.0 °F 43% 29.77 in 10.0 mi SSE 12.7 mph - N/A   Overcast
6:28 PM 73.4 °F - 59.0 °F 61% 29.76 in 2.5 mi South 9.2 mph - 0.07 in Rain , Thunderstorm Heavy Rain
6:41 PM 69.8 °F - 62.6 °F 78% 29.80 in 5.0 mi West 11.5 mph - 0.11 in Rain , Thunderstorm Light Thunderstorms and Rain
6:44 PM 69.8 °F - 62.6 °F 78% 29.81 in 1.2 mi SSW 26.5 mph 36.8 mph 0.26 in Rain , Thunderstorm Light Thunderstorms and Rain
6:53 PM 66.9 °F - 61.0 °F 81% 29.78 in 0.8 mi ESE 12.7 mph 29.9 mph 0.35 in Rain , Thunderstorm Light Thunderstorms and Rain
6:56 PM 66.2 °F - 62.6 °F 88% 29.77 in 3.0 mi ESE 10.4 mph 18.4 mph 0.00 in Rain , Thunderstorm Light Thunderstorms and Rain
7:53 PM 62.1 °F - 53.1 °F 72% 29.85 in 10.0 mi North 13.8 mph 28.8 mph 0.00 in Thunderstorm Thunderstorm
8:53 PM 57.9 °F - 57.0 °F 97% 29.86 in 9.0 mi NE 8.1 mph - 0.10 in Rain Light Rain
9:10 PM 57.2 °F - 55.4 °F 94% 29.85 in 10.0 mi East 9.2 mph 19.6 mph 0.00 in Thunderstorm Mostly Cloudy
9:40 PM 57.2 °F - 55.4 °F 94% 29.84 in 10.0 mi East 5.8 mph - 0.01 in Rain Light Rain
9:53 PM 57.0 °F - 55.9 °F 96% 29.83 in 10.0 mi East 6.9 mph - 0.01 in   Scattered Clouds
10:34 PM 57.2 °F - 55.4 °F 94% 29.85 in 10.0 mi NNW 3.5 mph - N/A   Scattered Clouds
10:53 PM 57.0 °F - 55.9 °F 96% 29.84 in 10.0 mi NNW 6.9 mph - N/A   Mostly Cloudy
11:53 PM 55.9 °F - 55.0 °F 97% 29.83 in 10.0 mi North 9.2 mph - N/A   Scattered Clouds